When you browse on this site, cookies collect data to enhance your experience and personalize the content and advertising you see.
Visit our Privacy Policy to learn more. By continuing to use the site, you agree to this use of cookies and data.
  • In Hungary
  • List of Countries
  • For 7 days
  • Water Temperature
  • Weather Map
  • News
  • Weather Widgets
  • user-avatar
    Login

    Hourly Weather Bieniewo

    Today, 17 September, Tuesday

    Time Temperature Precipitation Wind Pressure Humidity
    00:00 +8°C° 0.1 mm 5 mps 748 mmHg 78%
    01:00 +8°C° 0.1 mm 5 mps 748 mmHg 79%
    02:00 +8°C° 0 mm 5 mps 747 mmHg 81%
    03:00 +7°C° 0 mm 5 mps 747 mmHg 82%
    04:00 +7°C° 0 mm 5 mps 747 mmHg 84%
    05:00 +8°C° 0.1 mm 5 mps 747 mmHg 84%
    06:00 +8°C° 0.1 mm 6 mps 747 mmHg 83%
    07:00 +9°C° 0.1 mm 6 mps 746 mmHg 83%
    08:00 +10°C° 0.2 mm 7 mps 746 mmHg 79%
    09:00 +11°C° 0.2 mm 7 mps 746 mmHg 75%
    10:00 +12°C° 0.2 mm 8 mps 745 mmHg 70%
    11:00 +11°C° 0.8 mm 8 mps 744 mmHg 73%
    12:00 +11°C° 0.8 mm 7 mps 744 mmHg 76%
    13:00 +10°C° 0.8 mm 7 mps 743 mmHg 79%
    14:00 +10°C° 1.4 mm 7 mps 743 mmHg 77%
    15:00 +10°C° 1.4 mm 7 mps 742 mmHg 74%
    16:00 +10°C° 1.4 mm 7 mps 742 mmHg 72%
    17:00 +9°C° 0.2 mm 6 mps 742 mmHg 75%
    18:00 +8°C° 0.2 mm 6 mps 741 mmHg 78%
    19:00 +5°C° 0.2 mm 6 mps 741 mmHg 81%
    20:00 +5°C° 0.1 mm 6 mps 741 mmHg 81%
    21:00 +5°C° 0.1 mm 6 mps 741 mmHg 81%
    22:00 +5°C° 0.1 mm 7 mps 740 mmHg 81%
    23:00 +5°C° 0.2 mm 6 mps 741 mmHg 81%

    Tomorrow, 18 September, Wednesday

    Time Temperature Precipitation Wind Pressure Humidity
    00:00 +5°C° 0.2 mm 6 mps 741 mmHg 82%
    01:00 +5°C° 0.2 mm 6 mps 741 mmHg 82%
    02:00 +5°C° 0.6 mm 6 mps 741 mmHg 85%
    03:00 +5°C° 0.6 mm 6 mps 742 mmHg 88%
    04:00 +5°C° 0.6 mm 6 mps 743 mmHg 90%
    05:00 +6°C° 1.1 mm 7 mps 743 mmHg 89%
    06:00 +8°C° 1.1 mm 7 mps 744 mmHg 88%
    07:00 +8°C° 1.1 mm 7 mps 745 mmHg 87%
    08:00 +9°C° 1.2 mm 7 mps 746 mmHg 86%
    09:00 +9°C° 1.2 mm 7 mps 747 mmHg 84%
    10:00 +10°C° 1.2 mm 7 mps 748 mmHg 83%
    11:00 +10°C° 0.5 mm 8 mps 748 mmHg 79%
    12:00 +11°C° 0.5 mm 8 mps 749 mmHg 74%
    13:00 +11°C° 0.5 mm 8 mps 749 mmHg 70%
    14:00 +11°C° 0.1 mm 8 mps 750 mmHg 70%
    15:00 +11°C° 0.1 mm 7 mps 750 mmHg 69%
    16:00 +11°C° 0.1 mm 7 mps 750 mmHg 69%
    17:00 +9°C° 0 mm 6 mps 751 mmHg 74%
    18:00 +8°C° 0 mm 4 mps 751 mmHg 80%
    19:00 +8°C° 0 mm 3 mps 751 mmHg 85%
    20:00 +7°C° 0.1 mm 3 mps 751 mmHg 86%
    21:00 +7°C° 0.1 mm 3 mps 752 mmHg 87%
    22:00 +7°C° 0.1 mm 3 mps 752 mmHg 88%
    23:00 +5°C° 0 mm 3 mps 752 mmHg 89%

    Day after tomorrow, 19 September, Thursday

    Time Temperature Precipitation Wind Pressure Humidity
    00:00 +5°C° 0 mm 3 mps 752 mmHg 90%
    01:00 +5°C° 0 mm 3 mps 752 mmHg 91%
    02:00 +5°C° 0.1 mm 3 mps 752 mmHg 92%
    03:00 +5°C° 0.1 mm 3 mps 753 mmHg 92%
    04:00 +5°C° 0.1 mm 3 mps 753 mmHg 93%
    05:00 +7°C° 0.1 mm 3 mps 753 mmHg 90%
    06:00 +8°C° 0.1 mm 3 mps 753 mmHg 86%
    07:00 +8°C° 0.1 mm 3 mps 753 mmHg 83%
    08:00 +10°C° 0.9 mm 4 mps 754 mmHg 78%
    09:00 +10°C° 0.9 mm 5 mps 754 mmHg 74%
    10:00 +11°C° 0.9 mm 6 mps 755 mmHg 69%
    11:00 +11°C° 0.6 mm 6 mps 755 mmHg 68%
    12:00 +11°C° 0.6 mm 7 mps 755 mmHg 67%
    13:00 +11°C° 0.6 mm 7 mps 755 mmHg 66%
    14:00 +11°C° 0.2 mm 7 mps 756 mmHg 68%
    15:00 +10°C° 0.2 mm 7 mps 756 mmHg 69%
    16:00 +10°C° 0.2 mm 6 mps 756 mmHg 70%
    17:00 +9°C° 0 mm 5 mps 756 mmHg 74%
    18:00 +7°C° 0 mm 4 mps 757 mmHg 78%
    19:00 +6°C° 0 mm 4 mps 757 mmHg 82%
    20:00 +7°C° 0 mm 3 mps 757 mmHg 82%
    21:00 +5°C° 0 mm 3 mps 757 mmHg 82%
    22:00 +5°C° 0 mm 3 mps 758 mmHg 81%
    23:00 +5°C° 0 mm 3 mps 758 mmHg 81%

    20 September, Friday

    Time Temperature Precipitation Wind Pressure Humidity
    00:00 +5°C° 0 mm 3 mps 758 mmHg 81%
    01:00 +4°C° 0 mm 3 mps 758 mmHg 81%
    02:00 +4°C° 0.1 mm 3 mps 758 mmHg 82%
    03:00 +5°C° 0.1 mm 3 mps 757 mmHg 83%
    04:00 +5°C° 0.1 mm 3 mps 757 mmHg 84%
    05:00 +5°C° 0.1 mm 3 mps 757 mmHg 83%
    06:00 +7°C° 0.1 mm 3 mps 757 mmHg 82%
    07:00 +7°C° 0.1 mm 3 mps 757 mmHg 81%
    08:00 +8°C° 0.1 mm 4 mps 758 mmHg 73%
    09:00 +9°C° 0.1 mm 5 mps 758 mmHg 65%
    10:00 +11°C° 0.1 mm 6 mps 759 mmHg 58%
    11:00 +11°C° 0.2 mm 6 mps 759 mmHg 59%
    12:00 +11°C° 0.2 mm 6 mps 759 mmHg 61%
    13:00 +12°C° 0.2 mm 5 mps 759 mmHg 63%
    14:00 +12°C° 0.1 mm 5 mps 759 mmHg 64%
    15:00 +11°C° 0.1 mm 4 mps 759 mmHg 66%
    16:00 +11°C° 0.1 mm 4 mps 759 mmHg 67%
    17:00 +10°C° 0 mm 3 mps 760 mmHg 71%
    18:00 +8°C° 0 mm 2 mps 760 mmHg 75%
    19:00 +7°C° 0 mm 2 mps 760 mmHg 79%
    20:00 +7°C° 0 mm 1 mps 760 mmHg 80%
    21:00 +7°C° 0 mm 1 mps 760 mmHg 80%
    22:00 +6°C° 0 mm 0 mps 761 mmHg 80%
    23:00 +7°C° 0 mm 1 mps 761 mmHg 79%

    21 September, Saturday

    Time Temperature Precipitation Wind Pressure Humidity
    00:00 +6°C° 0 mm 1 mps 761 mmHg 79%
    01:00 +6°C° 0 mm 1 mps 761 mmHg 78%
    02:00 +6°C° 0 mm 1 mps 761 mmHg 79%
    03:00 +5°C° 0 mm 2 mps 761 mmHg 79%
    04:00 +5°C° 0 mm 2 mps 761 mmHg 79%
    05:00 +5°C° 0 mm 2 mps 761 mmHg 77%
    06:00 +6°C° 0 mm 2 mps 761 mmHg 75%
    07:00 +7°C° 0 mm 2 mps 761 mmHg 73%
    08:00 +9°C° 0 mm 3 mps 761 mmHg 69%
    09:00 +11°C° 0 mm 3 mps 761 mmHg 65%
    10:00 +13°C° 0 mm 3 mps 761 mmHg 60%
    11:00 +14°C° 0 mm 3 mps 761 mmHg 59%
    12:00 +16°C° 0 mm 3 mps 761 mmHg 58%
    13:00 +17°C° 0 mm 3 mps 760 mmHg 57%
    14:00 +17°C° 0 mm 3 mps 760 mmHg 61%
    15:00 +17°C° 0 mm 2 mps 760 mmHg 64%
    16:00 +17°C° 0 mm 2 mps 760 mmHg 68%
    17:00 +15°C° 0 mm 2 mps 760 mmHg 74%
    18:00 +14°C° 0 mm 2 mps 760 mmHg 81%
    19:00 +12°C° 0 mm 2 mps 760 mmHg 88%
    20:00 +12°C° 0 mm 2 mps 760 mmHg 89%
    21:00 +10°C° 0 mm 2 mps 760 mmHg 90%
    22:00 +10°C° 0 mm 2 mps 760 mmHg 92%
    23:00 +10°C° 0 mm 2 mps 760 mmHg 92%

    22 September, Sunday

    Time Temperature Precipitation Wind Pressure Humidity
    00:00 +10°C° 0 mm 3 mps 760 mmHg 93%
    01:00 +9°C° 0 mm 3 mps 760 mmHg 93%
    02:00 +9°C° 0 mm 3 mps 760 mmHg 93%
    03:00 +9°C° 0 mm 3 mps 760 mmHg 93%
    04:00 +9°C° 0 mm 2 mps 760 mmHg 93%
    05:00 +9°C° 0 mm 2 mps 760 mmHg 91%
    06:00 +10°C° 0 mm 2 mps 760 mmHg 88%
    07:00 +12°C° 0 mm 2 mps 760 mmHg 86%
    08:00 +14°C° 0 mm 2 mps 760 mmHg 78%
    09:00 +16°C° 0 mm 2 mps 760 mmHg 69%
    10:00 +18°C° 0 mm 3 mps 760 mmHg 61%
    11:00 +18°C° 0 mm 3 mps 760 mmHg 57%
    12:00 +19°C° 0 mm 3 mps 760 mmHg 54%
    13:00 +20°C° 0 mm 3 mps 759 mmHg 50%
    14:00 +20°C° 0 mm 3 mps 759 mmHg 53%
    15:00 +20°C° 0 mm 3 mps 759 mmHg 55%
    16:00 +19°C° 0 mm 3 mps 758 mmHg 58%
    17:00 +18°C° 0 mm 3 mps 758 mmHg 61%
    18:00 +16°C° 0 mm 3 mps 758 mmHg 65%
    19:00 +13°C° 0 mm 3 mps 758 mmHg 69%
    20:00 +13°C° 0 mm 4 mps 758 mmHg 69%
    21:00 +13°C° 0 mm 4 mps 758 mmHg 69%
    22:00 +12°C° 0 mm 4 mps 758 mmHg 69%
    23:00 +12°C° 0 mm 4 mps 758 mmHg 69%
    Show more